Tracking 26240 objects as of 6-Oct-2022
HD Live streaming from Space Station
objects crossing your sky now

STARLINK-3324

Track STARLINK-3324 now!
10-day predictions
STARLINK-3324 is classified as:


NORAD ID: 50814
Int'l Code: 2022-001M
Perigee: 545.8 km
Apogee: 548.0 km
Inclination: 53.2 °
Period: 95.4 minutes
Semi major axis: 6917 km
RCS: Unknown
Launch date: January 6, 2022
Source: United States (US)
Launch site: AIR FORCE EASTERN TEST RANGE (AFETR)
aabbcc
Your satellite tracking list
Your tracking list is empty




NASA's NSSDC Master Catalog

Two Line Element Set (TLE):
1 50814U 22001M   22278.56391722 -.00000569  00000-0 -17657-4 0  9991
2 50814  53.2180  25.6459 0001607  40.7692 319.3420 15.08827424 41538
Source of the keplerian elements: AFSPC